Location: ????????
(60.4333°N, 46.4710°E)
Time: 04:45:00
(UTC+00:00)

NOAA 6 - Pass Details

Date: 25 November 2020
Orbit: 772 x 787 km, 98.7° (Epoch: 19 January)

Event Time Altitude Azimuth Distance (km) Brightness Sun altitude
Rises 12:58:27 0° 148° (SSE) 3,264 7.3 -6.3°
Reaches altitude 10° 13:00:47 10° 146° (SE) 2,337 6.5 -6.6°
Maximum altitude 13:05:52 65° 65° (ENE) 858 4.0 -7.1°
Drops below altitude 10° 13:10:59 10° 345° (NNW) 2,342 6.4 -7.7°
Sets 13:13:19 0° 342° (NNW) 3,272 7.1 -7.9°
